{"data":{"norad_id":63055,"epoch":"2026-05-24T17:19:13.870848Z","epoch_age_seconds":99332,"freshness":"FRESH","line1":"1 63055U 25035D   26144.72168832  .00181780  00000+0  13849-2 0  9999","line2":"2 63055  42.9993 276.6088 0002524 261.6862  98.3720 15.70915308 73073","mean_motion":15.70915308,"eccentricity":0.0002524,"inclination_deg":42.9993,"raan_deg":276.6088,"arg_perigee_deg":261.6862,"mean_anomaly_deg":98.372,"bstar":0.0013849,"rev_number":7307,"period_min":91.666303884538,"perigee_km":354.58005900246,"apogee_km":357.97959261613,"semimajor_km":6734.4168258093,"source":"CELESTRAK","updated_at":"2026-05-25T13:38:19.871494Z"}}